When you browse on this site, cookies collect data to enhance your experience and personalize the content and advertising you see.
Visit our Privacy Policy to learn more. By continuing to use the site, you agree to this use of cookies and data.
  • In Romania
  • List of Countries
  • For 7 days
  • Water Temperature
  • Satellite Maps
  • Weather Map
  • Weather Widgets
  • user-avatar
    Login

    Hourly Weather Skuratovo

    Today, 23 July, Tuesday

    Time Temperature Precipitation Wind Pressure Humidity
    00:00 +16°C° 0 mm 1 mps 739 mmHg 84%
    01:00 +15°C° 0 mm 1 mps 738 mmHg 85%
    02:00 +15°C° 0 mm 1 mps 739 mmHg 91%
    03:00 +15°C° 0 mm 1 mps 738 mmHg 91%
    04:00 +15°C° 0 mm 1 mps 738 mmHg 90%
    05:00 +15°C° 0 mm 1 mps 738 mmHg 90%
    06:00 +16°C° 0 mm 1 mps 738 mmHg 86%
    07:00 +19°C° 0 mm 1 mps 738 mmHg 81%
    08:00 +19°C° 0 mm 2 mps 738 mmHg 77%
    09:00 +20°C° 0.3 mm 2 mps 738 mmHg 76%
    10:00 +21°C° 0.3 mm 2 mps 738 mmHg 74%
    11:00 +21°C° 0.3 mm 3 mps 738 mmHg 73%
    12:00 +22°C° 0.2 mm 3 mps 738 mmHg 71%
    13:00 +22°C° 0.2 mm 3 mps 738 mmHg 69%
    14:00 +22°C° 0.2 mm 3 mps 738 mmHg 67%
    15:00 +22°C° 0.2 mm 3 mps 738 mmHg 68%
    16:00 +22°C° 0.2 mm 3 mps 738 mmHg 69%
    17:00 +23°C° 0.2 mm 2 mps 738 mmHg 70%
    18:00 +21°C° 0.2 mm 2 mps 738 mmHg 76%
    19:00 +19°C° 0.2 mm 2 mps 738 mmHg 82%
    20:00 +18°C° 0.2 mm 1 mps 738 mmHg 89%
    21:00 +16°C° 0 mm 1 mps 738 mmHg 90%
    22:00 +15°C° 0 mm 1 mps 738 mmHg 91%
    23:00 +14°C° 0 mm 1 mps 738 mmHg 92%

    Tomorrow, 24 July, Wednesday

    Time Temperature Precipitation Wind Pressure Humidity
    00:00 +14°C° 0 mm 1 mps 738 mmHg 92%
    01:00 +14°C° 0 mm 1 mps 738 mmHg 92%
    02:00 +13°C° 0 mm 1 mps 738 mmHg 91%
    03:00 +13°C° 0 mm 1 mps 739 mmHg 92%
    04:00 +13°C° 0 mm 2 mps 739 mmHg 92%
    05:00 +14°C° 0 mm 2 mps 739 mmHg 92%
    06:00 +15°C° 0 mm 2 mps 739 mmHg 85%
    07:00 +16°C° 0 mm 2 mps 739 mmHg 78%
    08:00 +18°C° 0 mm 2 mps 739 mmHg 70%
    09:00 +19°C° 0 mm 3 mps 740 mmHg 64%
    10:00 +21°C° 0 mm 3 mps 740 mmHg 58%
    11:00 +22°C° 0 mm 4 mps 740 mmHg 52%
    12:00 +22°C° 0 mm 4 mps 740 mmHg 51%
    13:00 +22°C° 0 mm 4 mps 740 mmHg 50%
    14:00 +23°C° 0 mm 5 mps 740 mmHg 50%
    15:00 +22°C° 0 mm 5 mps 740 mmHg 52%
    16:00 +21°C° 0 mm 4 mps 740 mmHg 55%
    17:00 +21°C° 0 mm 4 mps 740 mmHg 57%
    18:00 +20°C° 0 mm 3 mps 740 mmHg 64%
    19:00 +18°C° 0 mm 2 mps 740 mmHg 71%
    20:00 +18°C° 0 mm 1 mps 739 mmHg 78%
    21:00 +16°C° 0 mm 1 mps 740 mmHg 81%
    22:00 +15°C° 0 mm 1 mps 740 mmHg 83%
    23:00 +15°C° 0 mm 1 mps 740 mmHg 85%

    Day after tomorrow, 25 July, Thursday

    Time Temperature Precipitation Wind Pressure Humidity
    00:00 +14°C° 0 mm 1 mps 740 mmHg 87%
    01:00 +14°C° 0 mm 1 mps 740 mmHg 88%
    02:00 +14°C° 0 mm 1 mps 740 mmHg 89%
    03:00 +13°C° 0 mm 1 mps 740 mmHg 91%
    04:00 +13°C° 0 mm 1 mps 740 mmHg 92%
    05:00 +12°C° 0 mm 2 mps 740 mmHg 93%
    06:00 +14°C° 0 mm 2 mps 740 mmHg 86%
    07:00 +15°C° 0 mm 2 mps 740 mmHg 79%
    08:00 +17°C° 0 mm 2 mps 740 mmHg 71%
    09:00 +18°C° 0 mm 2 mps 740 mmHg 67%
    10:00 +19°C° 0 mm 2 mps 740 mmHg 64%
    11:00 +20°C° 0 mm 3 mps 740 mmHg 60%
    12:00 +20°C° 0.1 mm 3 mps 740 mmHg 64%
    13:00 +20°C° 0.1 mm 3 mps 740 mmHg 67%
    14:00 +20°C° 0.1 mm 3 mps 740 mmHg 71%
    15:00 +19°C° 0.2 mm 3 mps 740 mmHg 77%
    16:00 +18°C° 0.2 mm 2 mps 740 mmHg 83%
    17:00 +17°C° 0.2 mm 2 mps 740 mmHg 89%
    18:00 +16°C° 0 mm 2 mps 740 mmHg 91%
    19:00 +16°C° 0 mm 2 mps 740 mmHg 92%
    20:00 +16°C° 0 mm 2 mps 740 mmHg 94%
    21:00 +15°C° 0 mm 2 mps 740 mmHg 96%
    22:00 +15°C° 0 mm 2 mps 740 mmHg 97%
    23:00 +14°C° 0 mm 2 mps 741 mmHg 99%

    26 July, Friday

    Time Temperature Precipitation Wind Pressure Humidity
    00:00 +14°C° 0 mm 2 mps 741 mmHg 99%
    01:00 +14°C° 0 mm 2 mps 741 mmHg 99%
    02:00 +14°C° 0 mm 2 mps 741 mmHg 99%
    03:00 +15°C° 0 mm 2 mps 741 mmHg 99%
    04:00 +15°C° 0 mm 2 mps 742 mmHg 98%
    05:00 +16°C° 0 mm 3 mps 742 mmHg 98%
    06:00 +17°C° 0 mm 3 mps 742 mmHg 93%
    07:00 +18°C° 0 mm 3 mps 742 mmHg 88%
    08:00 +19°C° 0 mm 3 mps 742 mmHg 83%
    09:00 +21°C° 0 mm 3 mps 743 mmHg 76%
    10:00 +22°C° 0 mm 3 mps 743 mmHg 69%
    11:00 +25°C° 0 mm 3 mps 743 mmHg 62%
    12:00 +26°C° 0.2 mm 3 mps 743 mmHg 60%
    13:00 +27°C° 0.2 mm 3 mps 742 mmHg 58%
    14:00 +27°C° 0.2 mm 3 mps 742 mmHg 56%
    15:00 +27°C° 0.4 mm 3 mps 742 mmHg 65%
    16:00 +26°C° 0.4 mm 3 mps 742 mmHg 74%
    17:00 +25°C° 0.4 mm 2 mps 742 mmHg 84%
    18:00 +24°C° 0.2 mm 2 mps 742 mmHg 87%
    19:00 +21°C° 0.2 mm 2 mps 742 mmHg 91%
    20:00 +20°C° 0.2 mm 2 mps 742 mmHg 94%
    21:00 +19°C° 0 mm 2 mps 742 mmHg 95%
    22:00 +19°C° 0 mm 2 mps 742 mmHg 96%
    23:00 +18°C° 0 mm 2 mps 742 mmHg 97%

    27 July, Saturday

    Time Temperature Precipitation Wind Pressure Humidity
    00:00 +18°C° 0 mm 2 mps 742 mmHg 97%
    01:00 +17°C° 0 mm 2 mps 742 mmHg 97%
    02:00 +17°C° 0 mm 2 mps 742 mmHg 97%
    03:00 +17°C° 0 mm 2 mps 742 mmHg 97%
    04:00 +17°C° 0 mm 2 mps 742 mmHg 97%
    05:00 +17°C° 0 mm 2 mps 742 mmHg 97%
    06:00 +18°C° 0 mm 2 mps 742 mmHg 92%
    07:00 +20°C° 0 mm 3 mps 742 mmHg 86%
    08:00 +21°C° 0 mm 3 mps 741 mmHg 81%
    09:00 +24°C° 0 mm 3 mps 741 mmHg 72%
    10:00 +26°C° 0 mm 3 mps 741 mmHg 62%
    11:00 +28°C° 0 mm 4 mps 741 mmHg 52%
    12:00 +28°C° 0 mm 4 mps 741 mmHg 51%
    13:00 +28°C° 0 mm 4 mps 741 mmHg 50%
    14:00 +29°C° 0 mm 4 mps 740 mmHg 49%
    15:00 +28°C° 0 mm 3 mps 740 mmHg 55%
    16:00 +27°C° 0 mm 3 mps 740 mmHg 62%
    17:00 +26°C° 0 mm 2 mps 739 mmHg 68%
    18:00 +25°C° 0.1 mm 2 mps 739 mmHg 74%
    19:00 +23°C° 0.1 mm 2 mps 739 mmHg 80%
    20:00 +22°C° 0.1 mm 1 mps 739 mmHg 86%
    21:00 +20°C° 0 mm 2 mps 739 mmHg 88%
    22:00 +19°C° 0 mm 2 mps 739 mmHg 90%
    23:00 +19°C° 0 mm 2 mps 739 mmHg 92%

    28 July, Sunday

    Time Temperature Precipitation Wind Pressure Humidity
    00:00 +18°C° 0 mm 2 mps 739 mmHg 93%
    01:00 +18°C° 0 mm 2 mps 739 mmHg 95%
    02:00 +17°C° 0 mm 2 mps 739 mmHg 96%
    03:00 +17°C° 0 mm 3 mps 739 mmHg 95%
    04:00 +17°C° 0 mm 3 mps 739 mmHg 94%
    05:00 +16°C° 0 mm 3 mps 739 mmHg 93%
    06:00 +15°C° 0 mm 4 mps 739 mmHg 86%
    07:00 +17°C° 0 mm 4 mps 739 mmHg 79%
    08:00 +17°C° 0 mm 4 mps 739 mmHg 72%
    09:00 +18°C° 0 mm 4 mps 739 mmHg 68%
    10:00 +18°C° 0 mm 4 mps 740 mmHg 64%
    11:00 +19°C° 0 mm 4 mps 740 mmHg 60%
    12:00 +19°C° 0 mm 4 mps 740 mmHg 56%
    13:00 +20°C° 0 mm 4 mps 739 mmHg 51%
    14:00 +20°C° 0 mm 4 mps 739 mmHg 47%
    15:00 +19°C° 0 mm 4 mps 739 mmHg 48%
    16:00 +19°C° 0 mm 4 mps 739 mmHg 49%
    17:00 +18°C° 0 mm 4 mps 739 mmHg 50%
    18:00 +17°C° 0 mm 4 mps 739 mmHg 58%
    19:00 +14°C° 0 mm 3 mps 739 mmHg 65%
    20:00 +13°C° 0 mm 2 mps 739 mmHg 73%
    21:00 +12°C° 0 mm 2 mps 739 mmHg 74%
    22:00 +11°C° 0 mm 3 mps 740 mmHg 74%
    23:00 +10°C° 0 mm 3 mps 740 mmHg 75%
    Show more